Weather History for Lander, WY

Change the Weather History Date:

Saturday, September 28, 2013

  Actual Average Record
Temperature  
Mean Temperature 42 °F 53 °F  
Max Temperature 55 °F 66 °F 89 °F (2010)
Min Temperature 28 °F 39 °F 22 °F (1985)
Degree Days  
Heating Degree Days 23 12  
Month to date heating degree days 175 193  
Since 1 July heating degree days 175 233  
Cooling Degree Days 0 0  
Month to date cooling degree days 65 26  
Year to date cooling degree days 743 471  
Moisture  
Dew Point 31 °F    
Average Humidity 69    
Maximum Humidity 92    
Minimum Humidity 46    
Precipitation  
Precipitation 0.00 in 0.04 in 1.37 in (2014)
Month to date precipitation 3.78 0.96  
Year to date precipitation 11.64 9.84  
Snow  
Snow 0.00 in 0.10 in - ()
Month to date snowfall 4.1 2.3  
Since 1 July snowfall 4.1 2.3  
Since 1 September snowfall 4.1 2.3  
Snow Depth 0.00 in    
Sea Level Pressure  
Sea Level Pressure 30.08 in    
Wind  
Wind Speed 4 mph (ESE)    
Max Wind Speed 14 mph    
Max Gust Speed 16 mph    
Visibility 10 miles    
Events      
T = Trace of Precipitation, MM = Missing Value Source: NWS Daily Summary

Daily Weather History Graph

Daily Weather History Graph

Search for Another Location

Airport:

Trip Planner

Search our weather history database for the weather conditions in past years. The results will help you decide how hot, cold, wet, or windy it might be!

Date:

Astronomy

Sep. 28, 2013 Rise Set
Actual Time 7:09 AM MDT 7:00 PM MDT
Civil Twilight 6:40 AM MDT 7:29 PM MDT
Nautical Twilight 6:08 AM MDT 8:01 PM MDT
Astronomical Twilight 5:34 AM MDT 8:35 PM MDT
Moon 12:52 AM MDT (9/28) 3:28 PM MDT (9/28)
Length of Visible Light 12h 48m
Length of Day
11h 51m
Waning Crescent, 35% of the Moon is Illuminated
Sep 28
Waning Crescent
Oct 4
New
Oct 11
First Quarter
Oct 18
Full
Oct 26
Last Quarter

Hourly Weather History & Observations

Time (MDT) Temp. Windchill Dew Point Humidity Pressure Visibility Wind Dir Wind Speed Gust Speed Precip Events Conditions
12:53 AM 30.9 °F 27.5 °F 28.0 °F 89% 30.06 in 10.0 mi ESE 3.5 mph - N/A   Clear
1:53 AM 32.0 °F - 26.1 °F 79% 30.05 in 10.0 mi Calm Calm - N/A   Clear
2:53 AM 30.0 °F 25.2 °F 27.0 °F 88% 30.08 in 10.0 mi NW 4.6 mph - N/A   Clear
3:53 AM 30.0 °F 25.2 °F 25.0 °F 82% 30.09 in 10.0 mi SE 4.6 mph - N/A   Clear
4:53 AM 32.0 °F - 26.1 °F 79% 30.08 in 10.0 mi Calm Calm - N/A   Clear
5:53 AM 30.9 °F - 27.0 °F 85% 30.08 in 10.0 mi Calm Calm - N/A   Clear
6:53 AM 30.0 °F 22.4 °F 27.0 °F 88% 30.12 in 10.0 mi NW 8.1 mph - N/A   Clear
7:53 AM 34.0 °F 31.0 °F 26.1 °F 73% 30.13 in 10.0 mi Variable 3.5 mph - N/A   Clear
8:53 AM 33.1 °F 30.0 °F 28.0 °F 82% 30.15 in 10.0 mi SE 3.5 mph - N/A   Clear
9:53 AM 39.0 °F 35.7 °F 30.9 °F 73% 30.13 in 10.0 mi West 4.6 mph - N/A   Clear
10:53 AM 39.0 °F 35.7 °F 33.1 °F 79% 30.12 in 10.0 mi ENE 4.6 mph - N/A   Clear
11:53 AM 46.0 °F 42.5 °F 28.9 °F 51% 30.12 in 10.0 mi NNW 6.9 mph - N/A   Clear
12:53 PM 48.0 °F - 33.1 °F 56% 30.09 in 10.0 mi East 5.8 mph - N/A   Clear
1:53 PM 50.0 °F - 36.0 °F 59% 30.07 in 10.0 mi East 6.9 mph - N/A   Clear
2:53 PM 52.0 °F - 34.0 °F 50% 30.07 in 10.0 mi Calm Calm - N/A   Clear
3:53 PM 54.0 °F - 34.0 °F 47% 30.06 in 10.0 mi Calm Calm - N/A   Clear
4:53 PM 54.0 °F - 37.0 °F 53% 30.06 in 10.0 mi SE 5.8 mph - N/A   Clear
5:53 PM 50.0 °F - 37.0 °F 61% 30.08 in 10.0 mi SSE 4.6 mph - N/A   Clear
6:53 PM 50.0 °F - 36.0 °F 59% 30.08 in 10.0 mi ESE 4.6 mph - N/A   Clear
7:53 PM 46.9 °F - 34.0 °F 61% 30.07 in 10.0 mi NE 5.8 mph - N/A   Clear
8:53 PM 46.0 °F 43.1 °F 34.0 °F 63% 30.09 in 10.0 mi WNW 5.8 mph - N/A   Clear
9:53 PM 43.0 °F - 35.1 °F 74% 30.07 in 10.0 mi Calm Calm - N/A   Clear
10:53 PM 45.0 °F 41.8 °F 34.0 °F 65% 30.05 in 10.0 mi SW 5.8 mph - N/A   Clear
11:53 PM 50.0 °F - 33.1 °F 52% 29.99 in 10.0 mi SW 10.4 mph - N/A   Clear